Terminal Aerodrome Forecast
Issued by NWS Buffalo, NY

Home | Current Version | Previous Version | Text Only | Print | Product List | Glossary On
Versions: 1 2 3 4 5 6 7 8 9 10 11 12 13 14 15 16 17 18 19 20 21 22 23 24 25 26 27
000
FTUS41 KBUF 221500 AAA
TAFART
TAF AMD
KART 221514Z 2215/2312 05004KT P6SM OVC025
     FM221800 09004KT P6SM OVC050
     FM222000 09005KT P6SM BKN200
     FM230500 12005KT P6SM BKN120=

USA.gov is the U.S. government's official web portal to all federal, state and local government web resources and services.